View from above orbital plane
|
View from above satellite
|
Ground track
|
The orbit data is extracted from the following two-line orbital elements,
1 17974U 87041B 21103.08052961 .00000031 00000-0 38767-4 0 9995
2 17974 71.0071 208.7480 0011953 56.8172 116.7376 14.17273718754450
Epoch (UTC): | 13 April 2021 01:55:57 |
Eccentricity: | 0.0011953 |
inclination: | 71.0071° |
perigee height: | 826 km |
apogee height: | 843 km |
right ascension of ascending node: | 208.7480° |
argument of perigee: | 56.8172° |
revolutions per day: | 14.17273718 |
mean anomaly at epoch: | 116.7376° |
orbit number at epoch: | 75445 |
The dashed part of the orbit path shows where the satellite is in the earth's shadow,
|
|